TimeCST,TemperatureF,Dew PointF,Humidity,Sea Level PressureIn,VisibilityMPH,Wind Direction,Wind SpeedMPH,Gust SpeedMPH,PrecipitationIn,Events,Conditions,WindDirDegrees,DateUTC
12:00 AM,65,54,59,29.75,,ESE,16.1,,,,,110,2013-06-19 06:00:00
12:00 AM,64.9,54.1,68,29.75,-9999.0,ESE,16.1,-,N/A,,Unknown,110,2013-06-19 06:00:00
1:00 AM,63.9,54.7,72,29.74,-9999.0,East,17.3,-,N/A,,Unknown,100,2013-06-19 07:00:00
2:00 AM,61.5,54.0,76,29.72,-9999.0,WNW,4.6,-,N/A,,Unknown,290,2013-06-19 08:00:00
3:00 AM,63,55,69,29.72,,ENE,6.9,,,,,60,2013-06-19 09:00:00
3:00 AM,62.8,55.4,77,29.72,-9999.0,ENE,6.9,-,N/A,,Unknown,60,2013-06-19 09:00:00
4:00 AM,60.8,55.4,82,29.72,-9999.0,ENE,10.4,-,N/A,,Unknown,60,2013-06-19 10:00:00
5:00 AM,61.7,54.7,78,29.75,-9999.0,NNE,12.7,19.6,N/A,,Unknown,20,2013-06-19 11:00:00
6:00 AM,60,56,81,29.75,,ENE,12.7,,,,,70,2013-06-19 12:00:00
6:00 AM,60.4,55.8,85,29.75,-9999.0,ENE,12.7,-,N/A,,Unknown,70,2013-06-19 12:00:00
7:00 AM,61.0,56.5,85,29.75,-9999.0,NE,10.4,-,N/A,,Unknown,50,2013-06-19 13:00:00
8:00 AM,62.1,57.2,84,29.75,-9999.0,NE,15.0,-,N/A,,Unknown,40,2013-06-19 14:00:00
9:00 AM,64,58,73,29.73,,NE,19.6,,,,,40,2013-06-19 15:00:00
9:00 AM,63.7,57.6,80,29.73,-9999.0,NE,19.6,27.6,N/A,,Unknown,40,2013-06-19 15:00:00
10:00 AM,67.1,58.3,73,29.72,-9999.0,ENE,24.2,31.1,N/A,,Unknown,60,2013-06-19 16:00:00
11:00 AM,70.2,59.7,69,29.70,-9999.0,ENE,21.9,28.8,N/A,,Unknown,70,2013-06-19 17:00:00
12:00 PM,75,63,57,29.66,,East,23.0,,,,,80,2013-06-19 18:00:00
12:00 PM,75.0,62.6,65,29.66,-9999.0,East,23.0,-,N/A,,Unknown,80,2013-06-19 18:00:00
4:00 PM,84.4,54.1,35,29.60,-9999.0,ESE,23.0,33.4,N/A,,Unknown,120,2013-06-19 22:00:00
5:00 PM,83.7,57.4,41,29.59,-9999.0,ESE,20.7,28.8,N/A,,Unknown,120,2013-06-19 23:00:00
6:00 PM,82,56,31,29.58,,ESE,21.9,,,,,110,2013-06-20 00:00:00
6:00 PM,82.4,56.5,41,29.58,-9999.0,ESE,21.9,29.9,N/A,,Unknown,110,2013-06-20 00:00:00
7:00 PM,80.1,57.7,46,29.59,-9999.0,ESE,20.7,27.6,N/A,,Unknown,110,2013-06-20 01:00:00
8:00 PM,76.5,58.3,53,29.58,-9999.0,East,16.1,-,N/A,,Unknown,100,2013-06-20 02:00:00
9:00 PM,75,58,46,29.55,,East,23.0,,,,,90,2013-06-20 03:00:00
9:00 PM,75.4,58.1,55,29.55,-9999.0,East,23.0,-,N/A,,Unknown,90,2013-06-20 03:00:00
10:00 PM,72.7,58.5,61,29.60,-9999.0,East,17.3,25.3,N/A,,Unknown,90,2013-06-20 04:00:00
11:00 PM,72.0,55.9,57,29.61,-9999.0,ESE,19.6,25.3,N/A,,Unknown,120,2013-06-20 05:00:00